Location: Kershaw
(34.5481°N, 80.5823°W)
Time: 15:34:04
(UTC+00:00)

Vanguard 2 - All Passes

Search period start: 26 September 2022 00:00
Search period end: 06 October 2022 00:00
Orbit: 551 x 2935 km, 32.9° (Epoch: 25 September)

Date Brightness Start Highest point End Pass type
(mag) Time Alt. Az. Time Alt. Az. Time Alt. Az.
26 Sep - 01:25:53 10° W 01:43:02 61° SSW 01:55:16 10° SE visible
26 Sep - 03:41:19 10° W 03:52:23 25° SW 04:00:36 10° S visible
26 Sep - 17:03:50 10° S 17:12:38 24° SE 17:24:01 10° E daylight
26 Sep - 19:09:02 10° SW 19:22:15 58° SSE 19:39:33 10° E daylight
26 Sep - 21:18:25 10° WSW 21:34:45 83° S 21:52:19 10° E daylight
26 Sep - 23:30:14 10° W 23:48:14 80° SSW 00:03:29 10° ESE visible
27 Sep - 01:43:35 10° W 02:00:05 52° SSW 02:12:02 10° SE visible
27 Sep - 04:00:30 10° W 04:08:55 18° SW 04:15:42 10° SSW visible
27 Sep - 17:19:30 10° SSW 17:29:15 32° SE 17:42:35 10° E daylight
27 Sep - 19:25:56 10° SW 19:39:27 67° SSE 19:57:11 10° E daylight
27 Sep - 21:35:49 10° W 21:52:20 85° S 22:09:50 10° E daylight
27 Sep - 23:47:47 10° W 00:05:43 75° SSW 00:20:42 10° ESE visible
28 Sep - 02:01:24 10° W 02:17:01 43° SW 02:28:32 10° SSE visible
28 Sep - 04:21:47 10° WSW 04:25:26 11° SW 04:28:45 10° SW visible
28 Sep - 17:35:38 10° SSW 17:45:59 40° SE 18:00:42 10° E daylight
28 Sep - 19:42:59 10° WSW 19:56:46 74° SSE 20:14:46 10° E daylight
28 Sep - 21:53:17 10° W 22:09:57 85° S 22:27:19 10° E daylight
29 Sep - 00:05:20 10° W 00:23:05 68° SSW 00:37:48 10° SE visible
29 Sep - 02:19:27 10° W 02:33:48 34° SW 02:44:43 10° SSE visible
29 Sep - 15:49:12 10° SSE 15:54:33 15° SE 16:01:05 10° E daylight
29 Sep - 17:52:07 10° SW 18:02:51 49° SSE 18:18:34 10° E daylight
29 Sep - 20:00:11 10° WSW 20:14:13 80° SSE 20:32:22 10° E daylight
29 Sep - 22:10:44 10° W 22:27:33 83° S 22:44:47 10° ESE daylight
30 Sep - 00:22:56 10° W 00:40:19 60° SSW 00:54:43 10° SE visible
30 Sep - 02:37:55 10° W 02:50:29 26° SW 03:00:28 10° S visible
30 Sep - 16:04:02 10° S 16:11:04 22° SE 16:20:33 10° E daylight
30 Sep - 18:08:51 10° SW 18:19:53 59° SSE 18:36:18 10° E daylight
30 Sep - 20:17:29 10° WSW 20:31:44 83° S 20:49:57 10° E daylight
30 Sep - 22:28:13 10° W 22:45:06 79° SSW 23:02:08 10° ESE daylight
01 Oct - 00:40:35 10° W 00:57:26 51° SSW 01:11:26 10° SE visible
01 Oct - 02:57:07 10° W 03:07:06 19° SW 03:15:29 10° S visible
01 Oct - 16:19:45 10° SSW 16:27:39 30° SE 16:39:05 10° E daylight
01 Oct - 18:25:46 10° WSW 18:37:03 67° SSE 18:53:57 10° E daylight
01 Oct - 20:34:50 10° W 20:49:18 85° S 21:07:32 10° E daylight
01 Oct - 22:45:41 10° W 23:02:34 73° SSW 23:19:24 10° ESE daylight
02 Oct - 00:58:24 10° W 01:14:24 42° SW 01:27:51 10° SSE visible
02 Oct - 03:18:08 10° WSW 03:23:42 13° SW 03:28:47 10° SSW visible
02 Oct - 16:35:58 10° SSW 16:44:21 39° SE 16:57:11 10° E daylight
02 Oct - 18:42:51 10° WSW 18:54:21 75° SSE 19:11:35 10° E daylight
02 Oct - 20:52:13 10° W 21:06:54 84° S 21:25:05 10° E daylight
02 Oct - 23:03:10 10° W 23:19:57 66° SSW 23:36:28 10° SE visible
03 Oct - 01:16:28 10° W 01:31:16 34° SW 01:43:56 10° SSE visible
03 Oct - 14:50:13 10° SSE 14:53:37 13° SE 14:57:36 10° ESE daylight
03 Oct - 16:52:30 10° SW 17:01:12 48° SSE 17:15:02 10° E daylight
03 Oct - 19:00:01 10° WSW 19:11:45 80° S 19:29:13 10° E daylight
03 Oct - 21:09:37 10° W 21:24:28 81° S 21:42:35 10° ESE daylight
03 Oct - 23:20:43 10° W 23:37:14 58° SSW 23:53:21 10° SE visible
04 Oct - 01:34:58 10° W 01:48:04 26° SW 01:59:32 10° S visible
04 Oct - 15:04:47 10° S 15:10:08 19° SE 15:17:17 10° E daylight
04 Oct - 17:09:16 10° SW 17:18:13 58° SSE 17:32:45 10° E daylight
04 Oct - 19:17:17 10° W 19:29:14 84° S 19:46:52 10° E daylight
04 Oct - 21:27:01 10° W 21:41:59 77° SSW 21:59:58 10° ESE daylight
04 Oct - 23:38:21 10° W 23:54:23 49° SSW 00:09:59 10° SE visible
05 Oct - 01:54:16 10° W 02:04:49 19° SW 02:14:22 10° S visible
05 Oct - 15:20:31 10° SSW 15:26:43 27° SE 15:35:48 10° E daylight
05 Oct - 17:26:13 10° WSW 17:35:22 67° SSE 17:50:24 10° E daylight
05 Oct - 19:34:35 10° W 19:46:45 84° S 20:04:30 10° E daylight
05 Oct - 21:44:25 10° W 21:59:26 70° SSW 22:17:13 10° ESE daylight
